Location: *
(50.2903°S, 172.5375°W)
Time: 06:39:20
(UTC+00:00)

Cosmos 292 Rocket - Pass Details

Date: 17 November 2019
Orbit: 673 x 695 km, 74.0° (Epoch: 10 December)

Event Time Altitude Azimuth Distance (km) Brightness Sun altitude
Exits shadow 12:06:41 43° 2° (N) 985 4.1 -19.8°
Maximum altitude 12:08:12 69° 70° (ENE) 753 3.9 -19.7°
Drops below altitude 10° 12:13:04 10° 152° (SSE) 2,171 7.5 -19.6°
Sets 12:15:24 0° 154° (SSE) 3,090 8.7 -19.5°
